TimeCST,TemperatureF,Dew PointF,Humidity,Sea Level PressureIn,VisibilityMPH,Wind Direction,Wind SpeedMPH,Gust SpeedMPH,PrecipitationIn,Events,Conditions,WindDirDegrees,DateUTC
12:15 AM,28.4,26.6,93,30.07,4.0,Calm,Calm,-,N/A,,Clear,0,2012-12-28 06:15:00
12:35 AM,28.4,26.6,93,30.07,5.0,Calm,Calm,-,N/A,,Clear,0,2012-12-28 06:35:00
12:55 AM,28.4,26.6,93,30.07,5.0,Calm,Calm,-,N/A,,Clear,0,2012-12-28 06:55:00
1:15 AM,28.4,26.6,93,30.06,5.0,Calm,Calm,-,N/A,,Clear,0,2012-12-28 07:15:00
1:35 AM,28.4,26.6,93,30.07,5.0,Calm,Calm,-,N/A,,Mostly Cloudy,0,2012-12-28 07:35:00
1:55 AM,28.4,26.6,93,30.07,5.0,Calm,Calm,-,N/A,,Overcast,0,2012-12-28 07:55:00
2:15 AM,30.2,28.4,93,30.08,7.0,Calm,Calm,-,N/A,,Overcast,0,2012-12-28 08:15:00
2:35 AM,30.2,28.4,93,30.07,5.0,Calm,Calm,-,N/A,,Overcast,0,2012-12-28 08:35:00
2:55 AM,30.2,28.4,93,30.07,5.0,Calm,Calm,-,N/A,,Overcast,0,2012-12-28 08:55:00
3:15 AM,30.2,28.4,93,30.06,7.0,Calm,Calm,-,N/A,,Overcast,0,2012-12-28 09:15:00
3:35 AM,32.0,28.4,87,30.06,7.0,Calm,Calm,-,N/A,,Overcast,0,2012-12-28 09:35:00
3:55 AM,32.0,28.4,87,30.06,7.0,Calm,Calm,-,N/A,,Overcast,0,2012-12-28 09:55:00
4:15 AM,32.0,28.4,87,30.06,10.0,Calm,Calm,-,N/A,,Overcast,0,2012-12-28 10:15:00
4:35 AM,32.0,28.4,87,30.07,10.0,Calm,Calm,-,N/A,,Overcast,0,2012-12-28 10:35:00
5:15 AM,32.0,28.4,87,30.05,10.0,Calm,Calm,-,N/A,,Mostly Cloudy,0,2012-12-28 11:15:00
5:35 AM,32.0,28.4,87,30.07,7.0,Calm,Calm,-,N/A,,Scattered Clouds,0,2012-12-28 11:35:00
5:55 AM,32.0,30.2,93,30.07,7.0,Calm,Calm,-,N/A,,Mostly Cloudy,0,2012-12-28 11:55:00
6:15 AM,32.0,30.2,93,30.07,7.0,Calm,Calm,-,N/A,,Overcast,0,2012-12-28 12:15:00
6:35 AM,32.0,30.2,93,30.07,7.0,Calm,Calm,-,N/A,,Overcast,0,2012-12-28 12:35:00
6:55 AM,32.0,30.2,93,30.08,7.0,Calm,Calm,-,N/A,,Mostly Cloudy,0,2012-12-28 12:55:00
7:15 AM,32.0,30.2,93,30.07,7.0,Calm,Calm,-,N/A,,Overcast,0,2012-12-28 13:15:00
7:35 AM,32.0,30.2,93,30.08,7.0,Calm,Calm,-,N/A,,Overcast,0,2012-12-28 13:35:00
7:55 AM,32.0,30.2,93,30.07,7.0,Calm,Calm,-,N/A,,Overcast,0,2012-12-28 13:55:00
8:15 AM,32.0,30.2,93,30.09,10.0,Calm,Calm,-,N/A,,Mostly Cloudy,0,2012-12-28 14:15:00
8:35 AM,33.8,30.2,87,30.10,10.0,Calm,Calm,-,N/A,,Mostly Cloudy,0,2012-12-28 14:35:00
8:55 AM,35.6,32.0,87,30.09,10.0,Calm,Calm,-,N/A,,Overcast,0,2012-12-28 14:55:00
9:15 AM,37.4,32.0,81,30.09,10.0,Calm,Calm,-,N/A,,Overcast,0,2012-12-28 15:15:00
9:35 AM,39.2,30.2,70,30.09,10.0,Calm,Calm,-,N/A,,Overcast,0,2012-12-28 15:35:00
10:15 AM,41.0,32.0,70,30.09,10.0,Calm,Calm,-,N/A,,Overcast,0,2012-12-28 16:15:00
10:35 AM,41.0,30.2,65,30.07,10.0,Calm,Calm,-,N/A,,Overcast,0,2012-12-28 16:35:00
10:55 AM,42.8,30.2,61,30.06,10.0,Calm,Calm,-,N/A,,Mostly Cloudy,0,2012-12-28 16:55:00
11:15 AM,42.8,30.2,61,30.04,10.0,Calm,Calm,-,N/A,,Overcast,0,2012-12-28 17:15:00
11:35 AM,42.8,30.2,61,30.03,10.0,SE,3.5,-,N/A,,Overcast,130,2012-12-28 17:35:00
11:55 AM,42.8,30.2,61,30.01,10.0,Calm,Calm,-,N/A,,Overcast,0,2012-12-28 17:55:00
12:15 PM,42.8,30.2,61,29.99,10.0,Calm,Calm,-,N/A,,Overcast,0,2012-12-28 18:15:00
12:35 PM,42.8,30.2,61,29.98,10.0,Calm,Calm,-,N/A,,Overcast,0,2012-12-28 18:35:00
12:55 PM,42.8,30.2,61,29.97,10.0,Calm,Calm,-,N/A,,Overcast,0,2012-12-28 18:55:00
1:15 PM,44.6,30.2,57,29.96,10.0,Calm,Calm,-,N/A,,Overcast,0,2012-12-28 19:15:00
1:35 PM,44.6,30.2,57,29.96,10.0,Calm,Calm,-,N/A,,Overcast,0,2012-12-28 19:35:00
1:55 PM,44.6,30.2,57,29.95,10.0,Calm,Calm,-,N/A,,Overcast,0,2012-12-28 19:55:00
2:15 PM,44.6,30.2,57,29.95,10.0,Calm,Calm,-,N/A,,Overcast,0,2012-12-28 20:15:00
2:35 PM,42.8,30.2,61,29.95,10.0,Calm,Calm,-,N/A,,Overcast,0,2012-12-28 20:35:00
2:55 PM,42.8,32.0,66,29.93,10.0,Calm,Calm,-,N/A,,Light Drizzle,0,2012-12-28 20:55:00
3:15 PM,42.8,32.0,66,29.93,10.0,Calm,Calm,-,N/A,,Light Drizzle,0,2012-12-28 21:15:00
3:35 PM,42.8,32.0,66,29.93,10.0,Calm,Calm,-,N/A,Rain,Rain,0,2012-12-28 21:35:00
3:55 PM,42.8,33.8,70,29.93,10.0,Calm,Calm,-,N/A,Rain,Light Rain,0,2012-12-28 21:55:00
4:35 PM,41.0,35.6,81,29.93,7.0,Calm,Calm,-,0.03,Rain,Light Rain,0,2012-12-28 22:35:00
4:55 PM,42.8,33.8,70,29.92,10.0,Calm,Calm,-,0.04,Rain,Rain,0,2012-12-28 22:55:00
5:15 PM,42.8,33.8,70,29.91,10.0,Calm,Calm,-,0.01,Rain,Light Rain,0,2012-12-28 23:15:00
5:35 PM,42.8,33.8,70,29.90,10.0,Calm,Calm,-,0.02,Rain,Light Rain,0,2012-12-28 23:35:00
5:55 PM,42.8,33.8,70,29.88,10.0,Calm,Calm,-,0.04,Rain,Rain,0,2012-12-28 23:55:00
6:15 PM,42.8,33.8,70,29.87,10.0,NNW,5.8,-,0.02,Rain,Light Rain,340,2012-12-29 00:15:00
6:35 PM,42.8,35.6,76,29.87,7.0,NNW,4.6,-,0.04,Rain,Rain,340,2012-12-29 00:35:00
6:55 PM,42.8,35.6,76,29.86,7.0,NW,5.8,-,0.07,Rain,Light Rain,310,2012-12-29 00:55:00
7:15 PM,42.8,35.6,76,29.85,7.0,North,6.9,-,0.03,Rain,Rain,10,2012-12-29 01:15:00
7:35 PM,42.8,35.6,76,29.84,7.0,ENE,4.6,-,0.06,Rain,Light Rain,60,2012-12-29 01:35:00
7:55 PM,41.0,35.6,81,29.82,10.0,ENE,5.8,-,0.08,Rain,Light Rain,70,2012-12-29 01:55:00
8:15 PM,42.8,35.6,76,29.83,10.0,North,5.8,17.3,0.01,Rain,Light Rain,350,2012-12-29 02:15:00
8:35 PM,41.0,35.6,81,29.85,7.0,NNE,3.5,-,0.03,Rain,Rain,30,2012-12-29 02:35:00
8:55 PM,41.0,35.6,81,29.83,5.0,East,4.6,-,0.06,Rain,Rain,100,2012-12-29 02:55:00
9:15 PM,42.8,35.6,76,29.85,7.0,SW,3.5,-,0.03,Rain,Rain,230,2012-12-29 03:15:00
9:35 PM,41.0,35.6,81,29.86,5.0,Calm,Calm,-,0.06,Rain,Rain,0,2012-12-29 03:35:00
9:55 PM,41.0,35.6,81,29.84,10.0,North,6.9,-,0.07,Rain,Light Rain,360,2012-12-29 03:55:00
10:15 PM,41.0,35.6,81,29.79,7.0,NW,3.5,-,0.02,Rain,Light Rain,310,2012-12-29 04:15:00
10:35 PM,41.0,35.6,81,29.80,10.0,NNE,4.6,-,0.03,Rain,Light Rain,20,2012-12-29 04:35:00
10:55 PM,41.0,35.6,81,29.81,10.0,WSW,3.5,17.3,0.03,,Overcast,250,2012-12-29 04:55:00
11:15 PM,41.0,35.6,81,29.79,7.0,SSW,5.8,-,N/A,,Drizzle,200,2012-12-29 05:15:00
11:35 PM,41.0,35.6,81,29.78,10.0,SW,3.5,-,N/A,Rain,Light Rain,230,2012-12-29 05:35:00
11:55 PM,41.0,35.6,81,29.79,5.0,South,3.5,-,N/A,Rain,Light Rain,170,2012-12-29 05:55:00